TimeCST,TemperatureF,Dew PointF,Humidity,Sea Level PressureIn,VisibilityMPH,Wind Direction,Wind SpeedMPH,Gust SpeedMPH,PrecipitationIn,Events,Conditions,WindDirDegrees,DateUTC
12:15 AM,37.4,37.4,100,29.80,3.0,ESE,8.1,-,N/A,,Overcast,110,2013-01-27 06:15:00
12:35 AM,35.6,35.6,100,29.79,2.5,East,6.9,-,N/A,,Overcast,100,2013-01-27 06:35:00
12:55 AM,35.6,35.6,100,29.78,2.5,East,4.6,-,N/A,,Overcast,100,2013-01-27 06:55:00
1:15 AM,33.8,33.8,100,29.77,1.8,ESE,8.1,-,N/A,,Scattered Clouds,110,2013-01-27 07:15:00
1:35 AM,33.8,33.8,100,29.74,1.2,East,9.2,-,N/A,,Mist,100,2013-01-27 07:35:00
1:55 AM,33.8,33.8,100,29.73,1.0,East,8.1,-,N/A,,Mist,90,2013-01-27 07:55:00
2:15 AM,33.8,33.8,100,29.72,0.8,ENE,6.9,-,N/A,,Mostly Cloudy,70,2013-01-27 08:15:00
2:35 AM,33.8,33.8,100,29.71,0.2,East,9.2,-,N/A,Fog,Fog,80,2013-01-27 08:35:00
2:55 AM,33.8,33.8,100,29.71,0.2,East,6.9,-,N/A,Fog,Fog,80,2013-01-27 08:55:00
3:15 AM,33.8,33.8,100,29.70,0.2,ENE,6.9,-,N/A,Fog,Fog,70,2013-01-27 09:15:00
3:35 AM,32.0,32.0,100,29.70,0.2,NE,5.8,-,N/A,Fog,Fog,40,2013-01-27 09:35:00
3:55 AM,32.0,32.0,100,29.69,0.5,NE,4.6,-,N/A,Fog,Fog,50,2013-01-27 09:55:00
4:15 AM,32.0,32.0,100,29.68,0.2,NE,5.8,-,N/A,Fog,Fog,40,2013-01-27 10:15:00
4:35 AM,32.0,32.0,100,29.67,0.2,NNE,6.9,-,N/A,Fog,Fog,20,2013-01-27 10:35:00
4:55 AM,32.0,32.0,100,29.67,0.2,North,8.1,-,N/A,Fog,Fog,10,2013-01-27 10:55:00
5:15 AM,32.0,32.0,100,29.67,0.2,North,6.9,-,N/A,Fog,Fog,10,2013-01-27 11:15:00
5:35 AM,32.0,32.0,100,29.65,0.2,NNE,5.8,-,N/A,Snow,Heavy Snow,30,2013-01-27 11:35:00
5:55 AM,32.0,32.0,100,29.65,0.2,NE,3.5,-,N/A,Fog,Light Freezing Fog,50,2013-01-27 11:55:00
6:15 AM,30.2,30.2,100,29.66,0.2,North,4.6,-,N/A,Fog,Light Freezing Fog,10,2013-01-27 12:15:00
6:35 AM,30.2,30.2,100,29.65,0.2,NW,6.9,-,N/A,Fog,Light Freezing Fog,320,2013-01-27 12:35:00
6:55 AM,30.2,30.2,100,29.66,0.2,NW,5.8,-,N/A,Fog,Light Freezing Fog,310,2013-01-27 12:55:00
7:15 AM,30.2,30.2,100,29.68,0.2,West,8.1,-,N/A,Fog,Light Freezing Fog,280,2013-01-27 13:15:00
7:55 AM,32.0,32.0,100,29.68,0.2,WNW,10.4,-,N/A,Fog,Fog,300,2013-01-27 13:55:00
8:15 AM,32.0,32.0,100,29.69,0.2,WNW,10.4,-,N/A,,Overcast,300,2013-01-27 14:15:00
8:35 AM,32.0,32.0,100,29.69,0.2,NW,9.2,-,N/A,Fog,Fog,310,2013-01-27 14:35:00
8:55 AM,32.0,32.0,100,29.70,0.2,WNW,11.5,17.3,N/A,Fog,Fog,300,2013-01-27 14:55:00
9:15 AM,33.8,33.8,100,29.70,0.2,WNW,11.5,-,N/A,Fog,Fog,300,2013-01-27 15:15:00
9:35 AM,33.8,33.8,100,29.71,0.2,WNW,13.8,-,N/A,Fog,Fog,300,2013-01-27 15:35:00
9:55 AM,33.8,33.8,100,29.71,0.5,NW,12.7,-,N/A,Fog,Fog,310,2013-01-27 15:55:00
10:15 AM,35.6,35.6,100,29.72,0.5,WNW,12.7,-,N/A,Fog,Fog,290,2013-01-27 16:15:00
10:35 AM,37.4,37.4,100,29.73,2.5,NW,13.8,-,N/A,,Overcast,310,2013-01-27 16:35:00
10:55 AM,37.4,37.4,100,29.74,4.0,NW,10.4,-,N/A,,Overcast,310,2013-01-27 16:55:00
11:15 AM,41.0,41.0,100,29.74,4.0,NW,11.5,-,N/A,,Overcast,320,2013-01-27 17:15:00
11:35 AM,41.0,41.0,100,29.74,4.0,WNW,10.4,-,N/A,,Overcast,290,2013-01-27 17:35:00
11:55 AM,44.6,42.8,93,29.73,5.0,WNW,10.4,-,N/A,,Overcast,300,2013-01-27 17:55:00
12:15 PM,46.4,44.6,93,29.73,5.0,WNW,11.5,-,N/A,,Mostly Cloudy,300,2013-01-27 18:15:00
12:35 PM,46.4,44.6,93,29.72,5.0,WNW,13.8,-,N/A,,Mostly Cloudy,290,2013-01-27 18:35:00
12:55 PM,50.0,46.4,87,29.71,7.0,NW,12.7,17.3,N/A,,Mostly Cloudy,310,2013-01-27 18:55:00
1:15 PM,50.0,44.6,82,29.71,7.0,NW,12.7,-,N/A,,Scattered Clouds,310,2013-01-27 19:15:00
1:35 PM,51.8,46.4,82,29.71,10.0,NW,13.8,19.6,N/A,,Clear,310,2013-01-27 19:35:00
1:55 PM,51.8,44.6,76,29.71,10.0,NW,13.8,-,N/A,,Clear,310,2013-01-27 19:55:00
2:15 PM,51.8,44.6,76,29.71,10.0,NW,13.8,19.6,N/A,,Clear,310,2013-01-27 20:15:00
2:35 PM,53.6,44.6,72,29.72,10.0,WNW,11.5,17.3,N/A,,Clear,300,2013-01-27 20:35:00
2:55 PM,53.6,44.6,72,29.72,10.0,WNW,12.7,-,N/A,,Clear,300,2013-01-27 20:55:00
3:15 PM,53.6,44.6,72,29.73,10.0,NW,9.2,-,N/A,,Scattered Clouds,310,2013-01-27 21:15:00
3:35 PM,53.6,44.6,72,29.74,10.0,WNW,11.5,17.3,N/A,,Clear,290,2013-01-27 21:35:00
3:55 PM,53.6,44.6,72,29.74,10.0,WNW,11.5,-,N/A,,Clear,300,2013-01-27 21:55:00
4:15 PM,53.6,44.6,72,29.74,10.0,WNW,6.9,-,N/A,,Clear,290,2013-01-27 22:15:00
4:35 PM,55.4,44.6,67,29.74,10.0,NW,5.8,-,N/A,,Clear,310,2013-01-27 22:35:00
4:55 PM,55.4,42.8,63,29.74,10.0,NW,4.6,-,N/A,,Clear,310,2013-01-27 22:55:00
5:15 PM,53.6,42.8,67,29.74,10.0,NW,3.5,-,N/A,,Clear,310,2013-01-27 23:15:00
5:35 PM,51.8,42.8,71,29.75,10.0,Calm,Calm,-,N/A,,Clear,0,2013-01-27 23:35:00
5:55 PM,51.8,42.8,71,29.75,10.0,North,4.6,-,N/A,,Clear,10,2013-01-27 23:55:00
6:15 PM,46.4,41.0,81,29.75,10.0,NNE,3.5,-,N/A,,Clear,30,2013-01-28 00:15:00
6:35 PM,48.2,42.8,82,29.76,10.0,ENE,3.5,-,N/A,,Clear,60,2013-01-28 00:35:00
6:55 PM,42.8,41.0,93,29.77,10.0,SE,4.6,-,N/A,,Clear,140,2013-01-28 00:55:00
7:15 PM,42.8,41.0,93,29.78,10.0,SE,3.5,-,N/A,,Clear,140,2013-01-28 01:15:00
7:35 PM,44.6,41.0,87,29.78,10.0,SE,3.5,-,N/A,,Clear,140,2013-01-28 01:35:00
7:55 PM,44.6,42.8,93,29.78,10.0,Calm,Calm,-,N/A,,Clear,0,2013-01-28 01:55:00
8:15 PM,42.8,41.0,93,29.79,10.0,Calm,Calm,-,N/A,,Clear,0,2013-01-28 02:15:00
8:35 PM,39.2,39.2,100,29.79,7.0,Calm,Calm,-,N/A,,Clear,0,2013-01-28 02:35:00
8:55 PM,37.4,37.4,100,29.79,7.0,Calm,Calm,-,N/A,,Clear,0,2013-01-28 02:55:00
9:15 PM,35.6,35.6,100,29.78,4.0,Calm,Calm,-,N/A,,Clear,0,2013-01-28 03:15:00
9:35 PM,35.6,35.6,100,29.78,4.0,Calm,Calm,-,N/A,,Clear,0,2013-01-28 03:35:00
9:55 PM,37.4,37.4,100,29.78,5.0,Calm,Calm,-,N/A,,Clear,0,2013-01-28 03:55:00
10:15 PM,33.8,33.8,100,29.79,1.8,SW,4.6,-,N/A,,Mist,230,2013-01-28 04:15:00
10:35 PM,33.8,33.8,100,29.78,2.5,South,3.5,-,N/A,,Clear,170,2013-01-28 04:35:00
10:55 PM,33.8,33.8,100,29.79,2.0,SW,6.9,-,N/A,,Clear,220,2013-01-28 04:55:00
11:15 PM,33.8,33.8,100,29.78,2.0,Calm,Calm,-,N/A,,Clear,0,2013-01-28 05:15:00
11:35 PM,32.0,32.0,100,29.78,1.8,SW,3.5,-,N/A,,Mist,230,2013-01-28 05:35:00
11:55 PM,32.0,32.0,100,29.79,1.0,WSW,6.9,-,N/A,,Mist,240,2013-01-28 05:55:00